START_TIME,STEP,MOV.,H8,t_acc.,H43,t_acc.,M25,t_acc.,H9,t_acc.
1979-07-04 12:00:54.300 ,1,0,0.,12.0,0.,12.0,0.,12.0,0.,12.0
1979-07-04 12:01:06.300 ,1,0,0.,12.0,0.,12.0,0.,12.0,0.,12.0
1979-07-04 12:01:18.300 ,1,0,0.,12.0,0.,12.0,0.,12.0,0.,12.0
1979-07-04 12:01:30.300 ,1,0,0.,12.0,0.,12.0,0.,12.0,0.,12.0
1979-07-04 12:01:42.300 ,2,0,0.,12.0,0.,12.0,0.,12.0,0.,12.0
1979-07-04 12:01:54.300 ,2,0,0.,12.0,0.,12.0,0.,12.0,0.,12.0
1979-07-04 12:02:06.300 ,2,0,0.,12.0,0.,12.0,0.,12.0,0.,12.0
1979-07-04 12:02:18.300 ,2,0,0.,12.0,0.,12.0,0.,12.0,0.,12.0
1979-07-04 12:02:30.300 ,3,0,0.,12.0,0.,12.0,0.,12.0,0.,12.0
1979-07-04 12:02:42.300 ,3,0,0.,12.0,0.,12.0,0.,12.0,0.,12.0
1979-07-04 12:02:54.300 ,3,0,0.,12.0,0.,12.0,0.,12.0,0.,12.0
1979-07-04 12:03:06.300 ,3,0,0.,12.0,0.,12.0,0.,12.0,0.,12.0
1979-07-04 12:03:18.300 ,4,0,0.,12.0,0.,12.0,0.,12.0,0.,12.0
1979-07-04 12:03:30.300 ,4,0,0.,12.0,0.,12.0,0.,12.0,0.,12.0
1979-07-04 12:03:42.300 ,4,0,0.,12.0,0.,12.0,0.,12.0,0.,12.0
1979-07-04 12:03:54.300 ,4,0,0.,12.0,0.,12.0,0.,12.0,0.,12.0
1979-07-04 12:04:06.300 ,5,0,0.,12.0,0.,12.0,0.,12.0,0.,12.0
1979-07-04 12:04:18.300 ,5,0,0.,12.0,0.,12.0,0.,12.0,0.,12.0
1979-07-04 12:04:30.300 ,5,0,0.,12.0,0.,12.0,0.,12.0,0.,12.0
1979-07-04 12:04:42.300 ,5,0,0.,12.0,0.,12.0,0.,12.0,0.,12.0
1979-07-04 12:04:54.300 ,6,0,0.,12.0,0.,12.0,0.,12.0,0.,12.0
1979-07-04 12:05:06.300 ,6,0,0.,12.0,0.,12.0,0.,12.0,0.,12.0
1979-07-04 12:05:18.300 ,6,0,0.,12.0,0.,12.0,0.,12.0,0.,12.0
1979-07-04 12:05:30.300 ,6,0,0.,12.0,0.,12.0,0.,12.0,0.,12.0
1979-07-04 12:05:42.300 ,7,0,0.,12.0,0.,12.0,0.,12.0,0.,12.0
1979-07-04 12:05:54.300 ,7,0,0.,12.0,0.,12.0,0.,12.0,0.,12.0
1979-07-04 12:06:06.300 ,7,0,0.,12.0,0.,12.0,0.,12.0,0.,12.0
1979-07-04 12:06:18.300 ,7,0,0.,12.0,0.,12.0,0.,12.0,0.,12.0
1979-07-04 12:06:30.300 ,7,0,0.,12.0,0.,12.0,0.,12.0,0.,12.0
1979-07-04 12:06:42.300 ,7,0,0.,12.0,0.,12.0,0.,12.0,0.,12.0
1979-07-04 12:06:54.300 ,7,0,0.,12.0,0.,12.0,0.,12.0,0.,12.0
1979-07-04 12:07:06.300 ,7,0,0.,12.0,0.,12.0,0.,12.0,0.,12.0
1979-07-04 12:07:18.300 ,6,0,,0,,0,,0,,0
1979-07-04 12:07:30.300 ,6,0,0.,12.0,0.,12.0,0.,12.0,0.,12.0
1979-07-04 12:07:42.300 ,6,0,0.,12.0,0.,12.0,0.,12.0,0.,12.0
1979-07-04 12:07:54.300 ,6,0,0.,12.0,0.,12.0,0.,12.0,0.,12.0
1979-07-04 12:08:06.300 ,5,0,0.,12.0,0.,12.0,0.,12.0,0.,12.0
1979-07-04 12:08:18.300 ,5,0,0.,12.0,0.,12.0,0.,12.0,0.,12.0
1979-07-04 12:08:30.300 ,5,0,0.,12.0,0.,12.0,0.,12.0,0.,12.0
1979-07-04 12:08:42.300 ,5,0,0.,12.0,0.,12.0,0.,12.0,0.,12.0
1979-07-04 12:08:54.300 ,4,0,0.,12.0,0.,12.0,0.,12.0,0.,12.0
1979-07-04 12:09:06.300 ,4,0,0.,12.0,0.,12.0,0.,12.0,0.,12.0
1979-07-04 12:09:18.300 ,4,0,0.,12.0,0.,12.0,0.,12.0,0.,12.0
1979-07-04 12:09:30.300 ,4,0,0.,12.0,0.,12.0,0.,12.0,0.,12.0
1979-07-04 12:09:42.300 ,3,0,0.,12.0,0.,12.0,0.,12.0,0.,12.0
1979-07-04 12:09:54.300 ,3,0,0.,12.0,0.,12.0,0.,12.0,0.,12.0
1979-07-04 12:10:06.300 ,3,0,0.,12.0,0.,12.0,0.,12.0,0.,12.0
1979-07-04 12:10:18.300 ,3,0,0.,12.0,0.,12.0,0.,12.0,0.,12.0
1979-07-04 12:10:30.300 ,2,0,0.,12.0,0.,12.0,0.,12.0,0.,12.0
1979-07-04 12:10:42.300 ,2,0,0.,12.0,0.,12.0,0.,12.0,0.,12.0
1979-07-04 12:10:54.300 ,2,0,0.,12.0,0.,12.0,0.,12.0,0.,12.0
1979-07-04 12:11:06.300 ,2,0,0.,12.0,0.,12.0,0.,12.0,0.,12.0
1979-07-04 12:11:18.300 ,1,0,,0,,0,,0,,0
1979-07-04 12:11:30.300 ,1,0,0.,12.0,0.,12.0,0.,12.0,0.,12.0
1979-07-04 12:11:42.300 ,1,0,0.,12.0,0.,12.0,0.,12.0,0.,12.0
1979-07-04 12:11:54.300 ,1,0,0.,12.0,0.,12.0,0.,12.0,0.,12.0
1979-07-04 12:12:06.300 ,0,0,0.,12.0,0.,12.0,0.,12.0,0.,12.0
1979-07-04 12:12:18.300 ,0,0,0.,12.0,0.,12.0,0.,12.0,0.,12.0
1979-07-04 12:12:30.300 ,0,0,0.,12.0,0.,12.0,0.,12.0,0.,12.0
1979-07-04 12:12:42.300 ,0,0,0.,12.0,0.,12.0,0.,12.0,0.,12.0
1979-07-04 12:12:54.300 ,0,0,0.,12.0,0.,12.0,0.,12.0,0.,12.0
1979-07-04 12:13:06.300 ,0,0,0.,12.0,0.,12.0,0.,12.0,0.,12.0
1979-07-04 12:13:18.300 ,0,0,0.,12.0,0.,12.0,0.,12.0,0.,12.0
1979-07-04 12:13:30.300 ,0,0,0.,12.0,0.,12.0,0.,12.0,0.,12.0
1979-07-04 12:13:42.300 ,1,0,0.,12.0,0.,12.0,0.,12.0,0.,12.0
1979-07-04 12:13:54.300 ,1,0,0.,12.0,0.,12.0,0.,12.0,0.,12.0
1979-07-04 12:14:06.300 ,1,0,0.,12.0,0.,12.0,0.,12.0,0.,12.0
1979-07-04 12:14:18.300 ,1,0,0.,12.0,0.,12.0,0.,12.0,0.,12.0
1979-07-04 12:14:30.300 ,2,0,0.,12.0,0.,12.0,0.,12.0,0.,12.0
1979-07-04 12:14:42.300 ,2,0,0.,12.0,0.,12.0,0.,12.0,0.,12.0
1979-07-04 12:14:54.300 ,2,0,0.,12.0,0.,12.0,0.,12.0,0.,12.0
1979-07-04 12:15:06.300 ,2,0,0.,12.0,0.,12.0,0.,12.0,0.,12.0
1979-07-04 12:15:18.300 ,3,0,0.,12.0,0.,12.0,0.,12.0,0.,12.0
1979-07-04 12:15:30.300 ,3,0,0.,12.0,0.,12.0,0.,12.0,0.,12.0
1979-07-04 12:15:42.300 ,3,0,0.,12.0,0.,12.0,0.,12.0,0.,12.0
1979-07-04 12:15:54.300 ,3,0,0.,12.0,0.,12.0,0.,12.0,0.,12.0
1979-07-04 12:16:06.300 ,4,0,0.,12.0,0.,12.0,0.,12.0,0.,12.0
1979-07-04 12:16:18.300 ,4,0,0.,12.0,0.,12.0,0.,12.0,0.,12.0
1979-07-04 12:16:30.300 ,4,0,0.,12.0,0.,12.0,0.,12.0,0.,12.0
1979-07-04 12:16:42.300 ,4,0,0.,12.0,0.,12.0,0.,12.0,0.,12.0
1979-07-04 12:16:54.300 ,5,0,0.,12.0,0.,12.0,0.,12.0,0.,12.0
1979-07-04 12:17:06.300 ,5,0,0.,12.0,0.,12.0,0.,12.0,0.,12.0
1979-07-04 12:17:18.300 ,5,0,0.,12.0,0.,12.0,0.,12.0,0.,12.0
1979-07-04 12:17:30.300 ,5,0,0.,12.0,0.,12.0,0.,12.0,0.,12.0
1979-07-04 12:17:42.300 ,6,0,0.,12.0,0.,12.0,0.,12.0,0.,12.0
1979-07-04 12:17:54.300 ,6,0,0.,12.0,0.,12.0,0.,12.0,0.,12.0
1979-07-04 12:18:06.300 ,6,0,0.,12.0,0.,12.0,0.,12.0,0.,12.0
1979-07-04 12:18:18.300 ,6,0,0.,12.0,0.,12.0,0.,12.0,0.,12.0
1979-07-04 12:18:30.300 ,7,0,0.,12.0,0.,12.0,0.,12.0,0.,12.0
1979-07-04 12:18:42.300 ,7,0,0.,12.0,0.,12.0,0.,12.0,0.,12.0
1979-07-04 12:18:54.300 ,7,0,0.,12.0,0.,12.0,0.,12.0,0.,12.0
1979-07-04 12:19:06.300 ,7,0,0.,12.0,0.,12.0,0.,12.0,0.,12.0
1979-07-04 12:19:18.300 ,7,0,0.,12.0,0.,12.0,0.,12.0,0.,12.0
1979-07-04 12:19:30.300 ,7,0,0.,12.0,0.,12.0,0.,12.0,0.,12.0
1979-07-04 12:19:42.300 ,7,0,0.,12.0,1.,12.0,0.,12.0,0.,12.0
1979-07-04 12:19:54.300 ,7,0,0.,12.0,0.,12.0,0.,12.0,0.,12.0
1979-07-04 12:20:06.300 ,6,0,0.,12.0,0.,12.0,0.,12.0,0.,12.0
1979-07-04 12:20:18.300 ,6,0,0.,12.0,0.,12.0,0.,12.0,0.,12.0
1979-07-04 12:20:30.300 ,6,0,0.,12.0,0.,12.0,0.,12.0,0.,12.0
1979-07-04 12:20:42.300 ,6,0,0.,12.0,0.,12.0,0.,12.0,0.,12.0
1979-07-04 12:20:54.300 ,5,0,0.,12.0,0.,12.0,0.,12.0,0.,12.0
1979-07-04 12:21:06.300 ,5,0,0.,12.0,0.,12.0,0.,12.0,0.,12.0
1979-07-04 12:21:18.300 ,5,0,0.,12.0,0.,12.0,0.,12.0,0.,12.0
1979-07-04 12:21:30.300 ,5,0,0.,12.0,0.,12.0,0.,12.0,0.,12.0
1979-07-04 12:21:42.300 ,4,0,0.,12.0,0.,12.0,0.,12.0,0.,12.0
1979-07-04 12:21:54.300 ,4,0,0.,12.0,0.,12.0,0.,12.0,0.,12.0
1979-07-04 12:22:06.300 ,4,0,0.,12.0,0.,12.0,0.,12.0,0.,12.0
1979-07-04 12:22:18.300 ,4,0,0.,12.0,0.,12.0,0.,12.0,0.,12.0
1979-07-04 12:22:30.300 ,3,0,0.,12.0,0.,12.0,0.,12.0,0.,12.0
1979-07-04 12:22:42.300 ,3,0,0.,12.0,0.,12.0,0.,12.0,0.,12.0
1979-07-04 12:22:54.300 ,3,0,0.,12.0,0.,12.0,0.,12.0,0.,12.0
1979-07-04 12:23:06.300 ,3,0,0.,12.0,0.,12.0,0.,12.0,0.,12.0
1979-07-04 12:23:18.300 ,2,0,0.,12.0,0.,12.0,0.,12.0,0.,12.0
1979-07-04 12:23:30.300 ,2,0,0.,12.0,0.,12.0,0.,12.0,0.,12.0
1979-07-04 12:23:42.300 ,2,0,0.,12.0,0.,12.0,0.,12.0,0.,12.0
1979-07-04 12:23:54.300 ,2,0,0.,12.0,0.,12.0,0.,12.0,0.,12.0
1979-07-04 12:24:06.300 ,1,0,0.,12.0,0.,12.0,0.,12.0,0.,12.0
1979-07-04 12:24:18.300 ,1,0,0.,12.0,0.,12.0,0.,12.0,0.,12.0
1979-07-04 12:24:30.300 ,1,0,0.,12.0,0.,12.0,0.,12.0,0.,12.0
1979-07-04 12:24:42.300 ,1,0,0.,12.0,0.,12.0,0.,12.0,0.,12.0
1979-07-04 12:24:54.300 ,0,0,0.,12.0,0.,12.0,0.,12.0,0.,12.0
1979-07-04 12:25:06.300 ,0,0,0.,12.0,0.,12.0,0.,12.0,0.,12.0
1979-07-04 12:25:18.300 ,0,0,0.,12.0,0.,12.0,0.,12.0,0.,12.0
1979-07-04 12:25:30.300 ,0,0,0.,12.0,0.,12.0,0.,12.0,0.,12.0
1979-07-04 12:25:42.300 ,0,0,0.,12.0,0.,12.0,0.,12.0,0.,12.0
1979-07-04 12:25:54.300 ,0,0,0.,12.0,0.,12.0,0.,12.0,0.,12.0
1979-07-04 12:26:06.300 ,0,0,0.,12.0,0.,12.0,0.,12.0,0.,12.0
1979-07-04 12:26:18.300 ,0,0,0.,12.0,0.,12.0,0.,12.0,0.,12.0
1979-07-04 12:26:30.300 ,1,0,0.,12.0,0.,12.0,0.,12.0,0.,12.0
1979-07-04 12:26:42.300 ,1,0,0.,12.0,0.,12.0,0.,12.0,0.,12.0
1979-07-04 12:26:54.300 ,1,0,0.,12.0,0.,12.0,0.,12.0,0.,12.0
1979-07-04 12:27:06.300 ,1,0,0.,12.0,0.,12.0,0.,12.0,0.,12.0
1979-07-04 12:27:18.300 ,2,0,0.,12.0,0.,12.0,0.,12.0,0.,12.0
1979-07-04 12:27:30.300 ,2,0,0.,12.0,0.,12.0,0.,12.0,0.,12.0
1979-07-04 12:27:42.300 ,2,0,0.,12.0,0.,12.0,0.,12.0,0.,12.0
1979-07-04 12:27:54.300 ,2,0,,0,,0,,0,,0
1979-07-04 12:28:06.300 ,3,0,0.,12.0,0.,12.0,0.,12.0,0.,12.0
1979-07-04 12:28:18.300 ,3,0,0.,12.0,0.,12.0,0.,12.0,0.,12.0
1979-07-04 12:28:30.300 ,3,0,0.,12.0,0.,12.0,0.,12.0,0.,12.0
1979-07-04 12:28:42.300 ,3,0,0.,12.0,0.,12.0,0.,12.0,0.,12.0
1979-07-04 12:28:54.300 ,4,0,0.,12.0,0.,12.0,0.,12.0,0.,12.0
1979-07-04 12:29:06.300 ,4,0,0.,12.0,0.,12.0,0.,12.0,0.,12.0
1979-07-04 12:29:18.300 ,4,0,0.,12.0,0.,12.0,0.,12.0,0.,12.0
1979-07-04 12:29:30.300 ,4,0,0.,12.0,0.,12.0,0.,12.0,0.,12.0
1979-07-04 12:29:42.300 ,5,0,0.,12.0,0.,12.0,0.,12.0,0.,12.0
1979-07-04 12:29:54.300 ,5,0,0.,12.0,0.,12.0,0.,12.0,0.,12.0
1979-07-04 12:30:06.300 ,5,0,0.,12.0,0.,12.0,0.,12.0,0.,12.0
1979-07-04 12:30:18.300 ,5,0,0.,12.0,0.,12.0,0.,12.0,0.,12.0
1979-07-04 12:30:30.300 ,6,0,0.,12.0,0.,12.0,0.,12.0,0.,12.0
1979-07-04 12:30:42.300 ,6,0,0.,12.0,0.,12.0,0.,12.0,0.,12.0
1979-07-04 12:30:54.300 ,6,0,0.,12.0,0.,12.0,0.,12.0,0.,12.0
1979-07-04 12:31:06.300 ,6,0,0.,12.0,0.,12.0,0.,12.0,0.,12.0
1979-07-04 12:31:18.300 ,7,0,0.,12.0,0.,12.0,0.,12.0,0.,12.0
1979-07-04 12:31:30.300 ,7,0,0.,12.0,0.,12.0,0.,12.0,0.,12.0
1979-07-04 12:31:42.300 ,7,0,0.,12.0,0.,12.0,0.,12.0,0.,12.0
1979-07-04 12:31:54.300 ,7,0,0.,12.0,0.,12.0,0.,12.0,0.,12.0
1979-07-04 12:32:06.300 ,7,0,0.,12.0,0.,12.0,0.,12.0,0.,12.0
1979-07-04 12:32:18.300 ,7,0,0.,12.0,0.,12.0,0.,12.0,0.,12.0
1979-07-04 12:32:30.300 ,7,0,0.,12.0,0.,12.0,0.,12.0,0.,12.0
1979-07-04 12:32:42.300 ,7,0,0.,12.0,0.,12.0,0.,12.0,0.,12.0
1979-07-04 12:32:54.300 ,6,0,0.,12.0,0.,12.0,0.,12.0,0.,12.0
1979-07-04 12:33:06.300 ,6,0,0.,12.0,0.,12.0,0.,12.0,0.,12.0
1979-07-04 12:33:18.300 ,6,0,0.,12.0,0.,12.0,0.,12.0,0.,12.0
1979-07-04 12:33:30.300 ,6,0,0.,12.0,0.,12.0,0.,12.0,0.,12.0
1979-07-04 12:33:42.300 ,5,0,0.,12.0,0.,12.0,0.,12.0,0.,12.0
1979-07-04 12:33:54.300 ,5,0,0.,12.0,0.,12.0,0.,12.0,0.,12.0
1979-07-04 12:34:06.300 ,5,0,0.,12.0,0.,12.0,0.,12.0,0.,12.0
1979-07-04 12:34:18.300 ,5,0,0.,12.0,0.,12.0,0.,12.0,0.,12.0
1979-07-04 12:34:30.300 ,4,0,0.,12.0,0.,12.0,0.,12.0,0.,12.0
1979-07-04 12:34:42.300 ,4,0,0.,12.0,0.,12.0,0.,12.0,0.,12.0
1979-07-04 12:34:54.300 ,4,0,0.,12.0,0.,12.0,0.,12.0,0.,12.0
1979-07-04 12:35:06.300 ,4,0,0.,12.0,0.,12.0,0.,12.0,0.,12.0
1979-07-04 12:35:18.300 ,3,0,0.,12.0,0.,12.0,0.,12.0,0.,12.0
1979-07-04 12:35:30.300 ,3,0,0.,12.0,0.,12.0,0.,12.0,0.,12.0
1979-07-04 12:35:42.300 ,3,0,0.,12.0,0.,12.0,0.,12.0,0.,12.0
1979-07-04 12:35:54.300 ,3,0,0.,12.0,0.,12.0,0.,12.0,0.,12.0
1979-07-04 12:36:06.300 ,2,0,0.,12.0,0.,12.0,0.,12.0,0.,12.0
1979-07-04 12:36:18.300 ,2,0,0.,12.0,0.,12.0,0.,12.0,0.,12.0
1979-07-04 12:36:30.300 ,2,0,0.,12.0,0.,12.0,0.,12.0,0.,12.0
1979-07-04 12:36:42.300 ,2,0,0.,12.0,0.,12.0,0.,12.0,0.,12.0
1979-07-04 12:36:54.300 ,1,0,0.,12.0,0.,12.0,0.,12.0,0.,12.0
1979-07-04 12:37:06.300 ,1,0,0.,12.0,0.,12.0,0.,12.0,0.,12.0
1979-07-04 12:37:18.300 ,1,0,0.,12.0,0.,12.0,0.,12.0,0.,12.0
1979-07-04 12:37:30.300 ,1,0,0.,12.0,0.,12.0,0.,12.0,0.,12.0
1979-07-04 12:37:42.300 ,0,0,0.,12.0,0.,12.0,0.,12.0,0.,12.0
1979-07-04 12:37:54.300 ,0,0,0.,12.0,0.,12.0,0.,12.0,0.,12.0
1979-07-04 12:38:06.300 ,0,0,0.,12.0,0.,12.0,0.,12.0,0.,12.0
1979-07-04 12:38:18.300 ,0,0,0.,12.0,0.,12.0,0.,12.0,0.,12.0
1979-07-04 12:38:30.300 ,0,0,0.,12.0,0.,12.0,0.,12.0,0.,12.0
1979-07-04 12:38:42.300 ,0,0,0.,12.0,0.,12.0,0.,12.0,0.,12.0
1979-07-04 12:38:54.300 ,0,0,0.,12.0,0.,12.0,0.,12.0,0.,12.0
1979-07-04 12:39:06.300 ,0,0,0.,12.0,0.,12.0,0.,12.0,0.,12.0
1979-07-04 12:39:18.300 ,1,0,0.,12.0,0.,12.0,0.,12.0,0.,12.0
1979-07-04 12:39:30.300 ,1,0,0.,12.0,0.,12.0,0.,12.0,0.,12.0
1979-07-04 12:39:42.300 ,1,0,0.,12.0,0.,12.0,0.,12.0,0.,12.0
1979-07-04 12:39:54.300 ,1,0,0.,12.0,0.,12.0,0.,12.0,0.,12.0
1979-07-04 12:40:06.300 ,2,0,0.,12.0,0.,12.0,0.,12.0,0.,12.0
1979-07-04 12:40:18.300 ,2,0,0.,12.0,0.,12.0,0.,12.0,0.,12.0
1979-07-04 12:40:30.300 ,2,0,0.,12.0,0.,12.0,0.,12.0,0.,12.0
1979-07-04 12:40:42.300 ,2,0,0.,12.0,0.,12.0,0.,12.0,0.,12.0
1979-07-04 12:40:54.300 ,3,0,0.,12.0,0.,12.0,0.,12.0,0.,12.0
1979-07-04 12:41:06.300 ,3,0,0.,12.0,0.,12.0,0.,12.0,0.,12.0
1979-07-04 12:41:18.300 ,3,0,0.,12.0,0.,12.0,0.,12.0,0.,12.0
1979-07-04 12:41:30.300 ,3,0,0.,12.0,0.,12.0,0.,12.0,0.,12.0
1979-07-04 12:41:42.300 ,4,0,0.,12.0,0.,12.0,0.,12.0,0.,12.0
1979-07-04 12:41:54.300 ,4,0,0.,12.0,0.,12.0,0.,12.0,0.,12.0
1979-07-04 12:42:06.300 ,4,0,0.,12.0,0.,12.0,0.,12.0,0.,12.0
1979-07-04 12:42:18.300 ,4,0,0.,12.0,0.,12.0,0.,12.0,0.,12.0
1979-07-04 12:42:30.300 ,5,0,0.,12.0,0.,12.0,0.,12.0,0.,12.0
1979-07-04 12:42:42.300 ,5,0,0.,12.0,0.,12.0,0.,12.0,0.,12.0
1979-07-04 12:42:54.300 ,5,0,0.,12.0,0.,12.0,0.,12.0,0.,12.0
1979-07-04 12:43:06.300 ,5,0,0.,12.0,0.,12.0,0.,12.0,0.,12.0
1979-07-04 12:43:18.300 ,6,0,0.,12.0,0.,12.0,0.,12.0,0.,12.0
1979-07-04 12:43:30.300 ,6,0,0.,12.0,0.,12.0,0.,12.0,0.,12.0
1979-07-04 12:43:42.300 ,6,0,0.,12.0,0.,12.0,0.,12.0,0.,12.0
1979-07-04 12:43:54.300 ,6,0,0.,12.0,0.,12.0,0.,12.0,0.,12.0
1979-07-04 12:44:06.300 ,7,0,0.,12.0,0.,12.0,0.,12.0,0.,12.0
1979-07-04 12:44:18.300 ,7,0,0.,12.0,0.,12.0,0.,12.0,0.,12.0
1979-07-04 12:44:30.300 ,7,0,0.,12.0,0.,12.0,0.,12.0,0.,12.0
1979-07-04 12:44:42.300 ,7,0,0.,12.0,0.,12.0,0.,12.0,0.,12.0
1979-07-04 12:44:54.300 ,7,0,,0,,0,,0,,0
1979-07-04 12:45:06.300 ,7,0,0.,12.0,0.,12.0,0.,12.0,0.,12.0
1979-07-04 12:45:18.300 ,7,0,0.,12.0,0.,12.0,0.,12.0,0.,12.0
1979-07-04 12:45:30.300 ,7,0,0.,12.0,0.,12.0,0.,12.0,0.,12.0
1979-07-04 12:45:42.300 ,6,0,0.,12.0,0.,12.0,0.,12.0,0.,12.0
1979-07-04 12:45:54.300 ,6,0,0.,12.0,0.,12.0,0.,12.0,0.,12.0
1979-07-04 12:46:06.300 ,6,0,0.,12.0,0.,12.0,0.,12.0,0.,12.0
1979-07-04 12:46:18.300 ,6,0,0.,12.0,0.,12.0,0.,12.0,0.,12.0
1979-07-04 12:46:30.300 ,5,0,0.,12.0,0.,12.0,0.,12.0,0.,12.0
1979-07-04 12:46:42.300 ,5,0,0.,12.0,0.,12.0,0.,12.0,0.,12.0
1979-07-04 12:46:54.300 ,5,0,0.,12.0,0.,12.0,0.,12.0,0.,12.0
1979-07-04 12:47:06.300 ,5,0,0.,12.0,0.,12.0,0.,12.0,0.,12.0
1979-07-04 12:47:18.300 ,4,0,0.,12.0,0.,12.0,0.,12.0,0.,12.0
1979-07-04 12:47:30.300 ,4,0,0.,12.0,0.,12.0,0.,12.0,0.,12.0
1979-07-04 12:47:42.300 ,4,0,0.,12.0,0.,12.0,0.,12.0,0.,12.0
1979-07-04 12:47:54.300 ,4,0,0.,12.0,0.,12.0,0.,12.0,0.,12.0
1979-07-04 12:48:06.300 ,3,0,0.,12.0,0.,12.0,0.,12.0,0.,12.0
1979-07-04 12:48:18.300 ,3,0,0.,12.0,0.,12.0,0.,12.0,0.,12.0
1979-07-04 12:48:30.300 ,3,0,0.,12.0,0.,12.0,0.,12.0,0.,12.0
1979-07-04 12:48:42.300 ,3,0,0.,12.0,0.,12.0,0.,12.0,0.,12.0
1979-07-04 12:48:54.300 ,2,0,0.,12.0,0.,12.0,0.,12.0,0.,12.0
1979-07-04 12:49:06.300 ,2,0,0.,12.0,0.,12.0,0.,12.0,0.,12.0
1979-07-04 12:49:18.300 ,2,0,0.,12.0,0.,12.0,0.,12.0,0.,12.0
1979-07-04 12:49:30.300 ,2,0,0.,12.0,0.,12.0,0.,12.0,0.,12.0
1979-07-04 12:49:42.300 ,1,0,0.,12.0,0.,12.0,0.,12.0,0.,12.0
1979-07-04 12:49:54.300 ,1,0,0.,12.0,0.,12.0,0.,12.0,0.,12.0
1979-07-04 12:50:06.300 ,1,0,0.,12.0,0.,12.0,0.,12.0,0.,12.0
1979-07-04 12:50:18.300 ,1,0,0.,12.0,0.,12.0,0.,12.0,0.,12.0
1979-07-04 12:50:30.300 ,0,0,0.,12.0,0.,12.0,0.,12.0,0.,12.0
1979-07-04 12:50:42.300 ,0,0,0.,12.0,0.,12.0,0.,12.0,0.,12.0
1979-07-04 12:50:54.300 ,0,0,0.,12.0,0.,12.0,0.,12.0,0.,12.0
1979-07-04 12:51:06.300 ,0,0,0.,12.0,0.,12.0,0.,12.0,0.,12.0
1979-07-04 12:51:18.300 ,0,0,0.,12.0,0.,12.0,0.,12.0,0.,12.0
1979-07-04 12:51:30.300 ,0,0,0.,12.0,0.,12.0,0.,12.0,0.,12.0
1979-07-04 12:51:42.300 ,0,0,0.,12.0,0.,12.0,0.,12.0,0.,12.0
1979-07-04 12:51:54.300 ,0,0,0.,12.0,0.,12.0,0.,12.0,0.,12.0
1979-07-04 12:52:06.300 ,1,0,0.,12.0,0.,12.0,0.,12.0,0.,12.0
1979-07-04 12:52:18.300 ,1,0,0.,12.0,0.,12.0,0.,12.0,0.,12.0
1979-07-04 12:52:30.300 ,1,0,0.,12.0,0.,12.0,0.,12.0,0.,12.0
1979-07-04 12:52:42.300 ,1,0,0.,12.0,0.,12.0,0.,12.0,0.,12.0
1979-07-04 12:52:54.300 ,2,0,0.,12.0,0.,12.0,0.,12.0,0.,12.0
1979-07-04 12:53:06.300 ,2,0,0.,12.0,0.,12.0,0.,12.0,0.,12.0
1979-07-04 12:53:18.300 ,2,0,0.,12.0,0.,12.0,0.,12.0,0.,12.0
1979-07-04 12:53:30.300 ,2,0,0.,12.0,0.,12.0,0.,12.0,0.,12.0
1979-07-04 12:53:42.300 ,3,0,0.,12.0,0.,12.0,0.,12.0,0.,12.0
1979-07-04 12:53:54.300 ,3,0,0.,12.0,0.,12.0,0.,12.0,0.,12.0
1979-07-04 12:54:06.300 ,3,0,0.,12.0,0.,12.0,0.,12.0,0.,12.0
1979-07-04 12:54:18.300 ,3,0,0.,12.0,0.,12.0,0.,12.0,0.,12.0
1979-07-04 12:54:30.300 ,4,0,0.,12.0,0.,12.0,0.,12.0,0.,12.0
1979-07-04 12:54:42.300 ,4,0,0.,12.0,0.,12.0,0.,12.0,0.,12.0
1979-07-04 12:54:54.300 ,4,0,0.,12.0,0.,12.0,0.,12.0,0.,12.0
1979-07-04 12:55:06.300 ,4,0,0.,12.0,0.,12.0,0.,12.0,0.,12.0
1979-07-04 12:55:18.300 ,5,0,0.,12.0,0.,12.0,0.,12.0,0.,12.0
1979-07-04 12:55:30.300 ,5,0,0.,12.0,0.,12.0,0.,12.0,0.,12.0
1979-07-04 12:55:42.300 ,5,0,0.,12.0,0.,12.0,0.,12.0,0.,12.0
1979-07-04 12:55:54.300 ,5,0,0.,12.0,0.,12.0,0.,12.0,0.,12.0
1979-07-04 12:56:06.300 ,6,0,0.,12.0,0.,12.0,0.,12.0,0.,12.0
1979-07-04 12:56:18.300 ,6,0,0.,12.0,0.,12.0,0.,12.0,0.,12.0
1979-07-04 12:56:30.300 ,6,0,0.,12.0,0.,12.0,0.,12.0,0.,12.0
1979-07-04 12:56:42.300 ,6,0,0.,12.0,0.,12.0,0.,12.0,0.,12.0
1979-07-04 12:56:54.300 ,7,0,0.,12.0,0.,12.0,0.,12.0,0.,12.0
1979-07-04 12:57:06.300 ,7,0,0.,12.0,0.,12.0,0.,12.0,0.,12.0
1979-07-04 12:57:18.300 ,7,0,0.,12.0,0.,12.0,0.,12.0,0.,12.0
1979-07-04 12:57:30.300 ,7,0,0.,12.0,0.,12.0,0.,12.0,0.,12.0
1979-07-04 12:57:42.300 ,7,0,0.,12.0,0.,12.0,0.,12.0,0.,12.0
1979-07-04 12:57:54.300 ,7,0,0.,12.0,0.,12.0,0.,12.0,0.,12.0
1979-07-04 12:58:06.300 ,7,0,0.,12.0,0.,12.0,0.,12.0,0.,12.0
1979-07-04 12:58:18.300 ,7,0,0.,12.0,0.,12.0,0.,12.0,0.,12.0
1979-07-04 12:58:30.300 ,6,0,0.,12.0,0.,12.0,0.,12.0,0.,12.0
1979-07-04 12:58:42.300 ,6,0,0.,12.0,0.,12.0,0.,12.0,0.,12.0
1979-07-04 12:58:54.300 ,6,0,0.,12.0,0.,12.0,0.,12.0,0.,12.0
1979-07-04 12:59:06.300 ,6,0,0.,12.0,0.,12.0,0.,12.0,0.,12.0
1979-07-04 12:59:18.300 ,5,0,0.,12.0,0.,12.0,0.,12.0,0.,12.0
1979-07-04 12:59:30.300 ,5,0,0.,12.0,0.,12.0,0.,12.0,0.,12.0
1979-07-04 12:59:42.300 ,5,0,0.,12.0,0.,12.0,0.,12.0,0.,12.0
1979-07-04 12:59:54.300 ,5,0,0.,12.0,0.,12.0,0.,12.0,0.,12.0
1979-07-04 13:00:06.300 ,4,0,0.,12.0,0.,12.0,0.,12.0,0.,12.0
1979-07-04 13:00:18.300 ,4,0,0.,12.0,0.,12.0,0.,12.0,0.,12.0
1979-07-04 13:00:30.300 ,4,0,0.,12.0,0.,12.0,0.,12.0,0.,12.0
1979-07-04 13:00:42.300 ,4,0,0.,12.0,0.,12.0,0.,12.0,0.,12.0
1979-07-04 13:00:54.300 ,3,0,0.,12.0,0.,12.0,0.,12.0,0.,12.0
1979-07-04 13:01:06.300 ,3,0,0.,12.0,0.,12.0,0.,12.0,0.,12.0
1979-07-04 13:01:18.300 ,3,0,0.,12.0,0.,12.0,0.,12.0,0.,12.0
1979-07-04 13:01:30.300 ,3,0,0.,12.0,0.,12.0,0.,12.0,0.,12.0
1979-07-04 13:01:42.300 ,2,0,0.,12.0,0.,12.0,0.,12.0,0.,12.0
1979-07-04 13:01:54.300 ,2,0,0.,12.0,0.,12.0,0.,12.0,0.,12.0
1979-07-04 13:02:06.300 ,2,0,0.,12.0,0.,12.0,0.,12.0,0.,12.0
1979-07-04 13:02:18.300 ,2,0,0.,12.0,0.,12.0,0.,12.0,0.,12.0
1979-07-04 13:02:30.300 ,1,0,0.,12.0,0.,12.0,0.,12.0,0.,12.0
1979-07-04 13:02:42.300 ,1,0,0.,12.0,0.,12.0,0.,12.0,0.,12.0
1979-07-04 13:02:54.300 ,1,0,0.,12.0,0.,12.0,0.,12.0,0.,12.0
1979-07-04 13:03:06.300 ,1,0,0.,12.0,0.,12.0,0.,12.0,0.,12.0
1979-07-04 13:03:18.300 ,0,0,0.,12.0,0.,12.0,0.,12.0,0.,12.0
1979-07-04 13:03:30.300 ,0,0,0.,12.0,0.,12.0,0.,12.0,0.,12.0
1979-07-04 13:03:42.300 ,0,0,0.,12.0,0.,12.0,0.,12.0,0.,12.0
1979-07-04 13:03:54.300 ,0,0,0.,12.0,0.,12.0,0.,12.0,0.,12.0
1979-07-04 13:04:06.300 ,0,0,0.,12.0,0.,12.0,0.,12.0,0.,12.0
1979-07-04 13:04:18.300 ,0,0,0.,12.0,0.,12.0,0.,12.0,0.,12.0
1979-07-04 13:04:30.300 ,0,0,0.,12.0,0.,12.0,0.,12.0,0.,12.0
1979-07-04 13:04:42.300 ,0,0,0.,12.0,0.,12.0,0.,12.0,0.,12.0
1979-07-04 13:04:54.300 ,7,0,0.,12.0,0.,12.0,0.,12.0,0.,12.0
1979-07-04 13:05:06.300 ,7,0,0.,12.0,0.,12.0,0.,12.0,0.,12.0
1979-07-04 13:05:18.300 ,7,0,0.,12.0,0.,12.0,0.,12.0,0.,12.0
1979-07-04 13:05:30.300 ,7,0,0.,12.0,0.,12.0,0.,12.0,0.,12.0
1979-07-04 13:05:42.300 ,7,0,0.,12.0,0.,12.0,0.,12.0,0.,12.0
1979-07-04 13:05:54.300 ,7,0,0.,12.0,0.,12.0,0.,12.0,0.,12.0
1979-07-04 13:06:06.300 ,7,0,0.,12.0,0.,12.0,0.,12.0,0.,12.0
1979-07-04 13:06:18.300 ,7,0,0.,12.0,0.,12.0,0.,12.0,0.,12.0
1979-07-04 13:06:30.300 ,7,0,0.,12.0,0.,12.0,0.,12.0,0.,12.0
1979-07-04 13:06:42.300 ,7,0,0.,12.0,0.,12.0,0.,12.0,0.,12.0
1979-07-04 13:06:54.300 ,7,0,0.,12.0,0.,12.0,0.,12.0,0.,12.0
1979-07-04 13:07:06.300 ,7,0,0.,12.0,0.,12.0,0.,12.0,0.,12.0
1979-07-04 13:07:18.300 ,3,1,0.,12.0,0.,12.0,0.,12.0,0.,12.0
1979-07-04 13:07:30.300 ,3,1,0.,12.0,0.,12.0,0.,12.0,0.,12.0
1979-07-04 13:07:42.300 ,0,1,0.,12.0,0.,12.0,0.,12.0,0.,12.0
1979-07-04 13:07:54.300 ,0,1,0.,12.0,0.,12.0,0.,12.0,0.,12.0
1979-07-04 13:08:06.300 ,4,1,0.,12.0,0.,12.0,0.,12.0,0.,12.0
1979-07-04 13:08:18.300 ,4,1,0.,12.0,0.,12.0,0.,12.0,0.,12.0
1979-07-04 13:08:30.300 ,7,1,0.,12.0,0.,12.0,0.,12.0,0.,12.0
1979-07-04 13:08:42.300 ,7,1,0.,12.0,0.,12.0,0.,12.0,0.,12.0
1979-07-04 13:08:54.300 ,3,1,0.,12.0,0.,12.0,0.,12.0,0.,12.0
1979-07-04 13:09:06.300 ,3,1,0.,12.0,0.,12.0,0.,12.0,0.,12.0
1979-07-04 13:09:18.300 ,0,1,0.,12.0,0.,12.0,0.,12.0,0.,12.0
1979-07-04 13:09:30.300 ,0,1,0.,12.0,0.,12.0,0.,12.0,0.,12.0
1979-07-04 13:09:42.300 ,4,1,0.,12.0,0.,12.0,0.,12.0,0.,12.0
1979-07-04 13:09:54.300 ,4,1,0.,12.0,0.,12.0,0.,12.0,0.,12.0
1979-07-04 13:10:06.300 ,7,1,0.,12.0,0.,12.0,0.,12.0,0.,12.0
1979-07-04 13:10:18.300 ,7,1,0.,12.0,0.,12.0,0.,12.0,0.,12.0
1979-07-04 13:10:30.300 ,3,1,0.,12.0,0.,12.0,0.,12.0,0.,12.0
1979-07-04 13:10:42.300 ,3,1,0.,12.0,0.,12.0,0.,12.0,0.,12.0
1979-07-04 13:10:54.300 ,0,1,0.,12.0,0.,12.0,0.,12.0,0.,12.0
1979-07-04 13:11:06.300 ,0,1,0.,12.0,0.,12.0,0.,12.0,0.,12.0
1979-07-04 13:11:18.300 ,4,1,0.,12.0,0.,12.0,0.,12.0,0.,12.0
1979-07-04 13:11:30.300 ,4,1,0.,12.0,0.,12.0,0.,12.0,0.,12.0
1979-07-04 13:11:42.300 ,7,1,0.,12.0,0.,12.0,0.,12.0,0.,12.0
1979-07-04 13:11:54.300 ,7,1,0.,12.0,0.,12.0,0.,12.0,0.,12.0
1979-07-04 13:12:06.300 ,3,1,0.,12.0,0.,12.0,0.,12.0,0.,12.0
1979-07-04 13:12:18.300 ,3,1,0.,12.0,0.,12.0,0.,12.0,0.,12.0
1979-07-04 13:12:30.300 ,0,1,0.,12.0,0.,12.0,0.,12.0,0.,12.0
1979-07-04 13:12:42.300 ,0,1,0.,12.0,0.,12.0,0.,12.0,0.,12.0
1979-07-04 13:12:54.300 ,4,1,0.,12.0,0.,12.0,0.,12.0,0.,12.0
1979-07-04 13:13:06.300 ,4,1,0.,12.0,0.,12.0,0.,12.0,0.,12.0
1979-07-04 13:13:18.300 ,7,1,0.,12.0,0.,12.0,0.,12.0,0.,12.0
1979-07-04 13:13:30.300 ,7,1,0.,12.0,0.,12.0,0.,12.0,0.,12.0
1979-07-04 13:13:42.300 ,3,1,0.,12.0,0.,12.0,0.,12.0,0.,12.0
1979-07-04 13:13:54.300 ,3,1,0.,12.0,0.,12.0,0.,12.0,0.,12.0
1979-07-04 13:14:06.300 ,0,1,0.,12.0,0.,12.0,0.,12.0,0.,12.0
1979-07-04 13:14:18.300 ,0,1,0.,12.0,0.,12.0,0.,12.0,0.,12.0
1979-07-04 13:14:30.300 ,4,1,0.,12.0,0.,12.0,0.,12.0,0.,12.0
1979-07-04 13:14:42.300 ,4,1,0.,12.0,0.,12.0,0.,12.0,0.,12.0
1979-07-04 13:14:54.300 ,7,1,0.,12.0,0.,12.0,0.,12.0,0.,12.0
1979-07-04 13:15:06.300 ,7,1,0.,12.0,0.,12.0,0.,12.0,0.,12.0
1979-07-04 13:15:18.300 ,3,1,0.,12.0,0.,12.0,0.,12.0,0.,12.0
1979-07-04 13:15:30.300 ,3,1,0.,12.0,0.,12.0,0.,12.0,0.,12.0
1979-07-04 13:15:42.300 ,0,1,0.,12.0,0.,12.0,0.,12.0,0.,12.0
1979-07-04 13:15:54.300 ,0,1,0.,12.0,0.,12.0,0.,12.0,0.,12.0
1979-07-04 13:16:06.300 ,4,1,0.,12.0,0.,12.0,0.,12.0,0.,12.0
1979-07-04 13:16:18.300 ,4,1,0.,12.0,0.,12.0,0.,12.0,0.,12.0
1979-07-04 13:16:30.300 ,7,1,0.,12.0,0.,12.0,0.,12.0,0.,12.0
1979-07-04 13:16:42.300 ,7,1,0.,12.0,0.,12.0,0.,12.0,0.,12.0
1979-07-04 13:16:54.300 ,3,1,0.,12.0,0.,12.0,0.,12.0,0.,12.0
1979-07-04 13:17:06.300 ,3,1,0.,12.0,0.,12.0,0.,12.0,0.,12.0
1979-07-04 13:17:18.300 ,0,1,0.,12.0,0.,12.0,0.,12.0,0.,12.0
1979-07-04 13:17:30.300 ,0,1,0.,12.0,0.,12.0,0.,12.0,0.,12.0
1979-07-04 13:17:42.300 ,0,0,0.,12.0,0.,12.0,0.,12.0,0.,12.0
1979-07-04 13:17:54.300 ,0,0,0.,12.0,0.,12.0,0.,12.0,0.,12.0
1979-07-04 13:18:06.300 ,0,0,0.,12.0,0.,12.0,0.,12.0,0.,12.0